Location: Unspecified
(0.0000°N, 0.0000°E)
Time: 20:07:20
(UTC+00:00)

ISS - Pass Details

Date: 08 May 2026
Orbit: 414 x 424 km, 51.6° (Epoch: 10 May)

Event Time Altitude Azimuth Distance (km) Brightness Sun altitude
Rises 05:27:00 0° 343° (NNW) 2,351 0.1 -7.1°
Reaches altitude 10° 05:29:19 10° 357° (N) 1,493 -0.8 -6.5°
Maximum altitude 05:32:08 25° 54° (NE) 898 -1.0 -5.8°
Drops below altitude 10° 05:34:58 10° 112° (ESE) 1,502 -0.1 -5.2°
Sets 05:37:18 0° 125° (SE) 2,370 0.7 -4.6°
